(473276) = 2014 HM148 = 2015 MC94

Discovered at Mount Lemmon on 2008-03-08 by Mt. Lemmon Survey.

Orbit

Orbit type: Main Belt

Note: WebGL enabled browser required.

epoch2023-02-25.0
epoch JD2460000.5
perihelion date2021-12-02.38854
perihelion JD2459550.88854
argument of perihelion (°)144.05041
ascending node (°)180.30130
inclination (°)12.76299
eccentricity0.1191576
perihelion distance (AU)2.8295712
Tisserand w.r.t. Jupiter3.1
ΔV w.r.t. Earth (km/sec)11.2
semimajor axis (AU)3.2123468
mean anomaly (°)76.96754
mean daily motion (°/day)0.17118680
aphelion distance (AU)3.595
period (years)5.76
P-vector [x]0.81253360
P-vector [y]-0.57299762
P-vector [z]-0.10706479
Q-vector [x]0.58291320
Q-vector [y]0.79834287
Q-vector [z]0.15119809
absolute magnitude16.19
phase slope0.15
uncertainty0
referenceMPO 731493
observations used208
oppositions12
arc length (days)9391
first opposition used1997
last opposition used2023
residual rms (arc-secs)0.83
perturbers coarse indicatorM-v
perturbers precise indicator003Ek
first observation date used1997-05-03.0
last observation date used2023-01-18.0
computer nameMPCLINUX
JD of orbit computation2457614.475329
perihelion JD uncertainty (days)9.7702E-05
argument of perihelion uncertainty (°)2.4531E-05
ascending node uncertainty (°)1.7032E-05
inclination uncertainty (°)3.4228E-06
eccentricity uncertainty 4.4658E-08
perihelion distance uncertainty (AU)1.4079E-07
Minimum Orbit Intersection Distances (in AU)
for orbit epoch: 2460000.5, reference: E2023-B23
Mercury2.43066
Venus2.11694
Earth1.82866
Mars1.47421
Jupiter1.87246
Saturn5.68405
Uranus14.8857
Neptune26.7483

Observations

212 total observations over interval: 1997 05 03.23721 – 2023 01 18.289611
These data are available for download (format description).

Date (UT) J2000 RA J2000 Dec Magn Location Ref
1997 05 03.23721 14 30 24.50 -02 57 50.7 20.8 V 691 – Steward Observatory, Kitt Peak-Spacewatch MPS 616118
1997 05 03.25886 14 30 23.55 -02 57 43.2 21.0 V 691 – Steward Observatory, Kitt Peak-Spacewatch MPS 616118
1997 05 03.28069 14 30 22.64 -02 57 35.9 21.0 V 691 – Steward Observatory, Kitt Peak-Spacewatch MPS 616118
2008 03 08.37456 12 14 34.33 -01 52 09.8 21.6 V G96 – Mt. Lemmon Survey MPS 616118
2008 03 08.37996 12 14 34.11 -01 52 07.0 21.4 V G96 – Mt. Lemmon Survey MPS 616118
2008 03 08.38545 12 14 33.93 -01 52 04.6 21.5 V G96 – Mt. Lemmon Survey MPS 616118
2008 03 08.39093 12 14 33.72 -01 52 02.4 21.5 V G96 – Mt. Lemmon Survey MPS 616118
2008 03 26.39200 12 02 57.80 +00 14 36.9 22.1 V G96 – Mt. Lemmon Survey MPS 616118
2008 03 26.39808 12 02 57.62 +00 14 40.3 21.6 V G96 – Mt. Lemmon Survey MPS 616118
2008 03 26.40418 12 02 57.33 +00 14 42.6 20.8 V G96 – Mt. Lemmon Survey MPS 616118
2008 03 26.41027 12 02 57.12 +00 14 45.0 21.1 V G96 – Mt. Lemmon Survey MPS 616118
2008 04 04.27821 11 57 17.64 +01 16 35.7 21.0 V G96 – Mt. Lemmon Survey MPS 616118
2008 04 04.28573 11 57 17.38 +01 16 38.5 20.9 V G96 – Mt. Lemmon Survey MPS 616118
2008 04 04.29330 11 57 17.10 +01 16 41.9 21.1 V G96 – Mt. Lemmon Survey MPS 616118
2008 04 04.30084 11 57 16.81 +01 16 44.9 20.9 V G96 – Mt. Lemmon Survey MPS 616118
2008 04 27.19728 11 46 20.20 +03 26 15.5 22.3 V G96 – Mt. Lemmon Survey MPS 616118
2008 04 27.20282 11 46 20.10 +03 26 17.1 21.6 V G96 – Mt. Lemmon Survey MPS 616118
2008 04 27.20839 11 46 20.02 +03 26 18.8 21.7 V G96 – Mt. Lemmon Survey MPS 616118
2008 04 27.21399 11 46 19.92 +03 26 19.9 22.0 V G96 – Mt. Lemmon Survey MPS 616118
2009 06 22.23508 16 31 27.97 -03 57 52.8 20.8 V 691 – Steward Observatory, Kitt Peak-Spacewatch MPS 616118
2009 06 22.25269 16 31 27.27 -03 57 53.1 20.8 V 691 – Steward Observatory, Kitt Peak-Spacewatch MPS 616118
2009 06 22.27029 16 31 26.59 -03 57 53.0 20.7 V 691 – Steward Observatory, Kitt Peak-Spacewatch MPS 616118
2010 09 01.35967 23 12 49.63 +00 28 17.0 20.5 R I41 – Palomar Mountain--ZTF MPS 1550234
2010 09 01.40899 23 12 47.72 +00 27 52.8 20.6 R I41 – Palomar Mountain--ZTF MPS 1550234
2010 09 02.38706 23 12 11.16 +00 19 52.0 20.1 V G96 – Mt. Lemmon Survey MPS 616118
2010 09 02.39401 23 12 10.90 +00 19 48.5 20.0 V G96 – Mt. Lemmon Survey MPS 616118
2010 09 02.40098 23 12 10.62 +00 19 44.9 20.1 V G96 – Mt. Lemmon Survey MPS 616118
2010 09 02.40789 23 12 10.36 +00 19 41.6 20.0 V G96 – Mt. Lemmon Survey MPS 616118
2010 09 04.42810 23 10 53.92 +00 02 52.5 19.6 R I41 – Palomar Mountain--ZTF MPS 1550234
2010 09 04.47125 23 10 52.22 +00 02 31.0 20.4 R I41 – Palomar Mountain--ZTF MPS 1550234
2010 11 27.09365 23 01 59.95 -07 02 40.7 21.2 V G96 – Mt. Lemmon Survey MPS 723684
2010 11 27.10168 23 02 00.27 -07 02 40.1 21.6 V G96 – Mt. Lemmon Survey MPS 723684
2010 11 27.10984 23 02 00.60 -07 02 39.6 21.7 V G96 – Mt. Lemmon Survey MPS 723684
2010 11 27.11795 23 02 00.92 -07 02 38.8 21.7 V G96 – Mt. Lemmon Survey MPS 723684
2013 01 18.48665 09 14 56.804 +02 51 28.91 21.4 w F51 – Pan-STARRS 1, Haleakala MPS 723684
2013 01 18.50102 09 14 56.242 +02 51 31.48 21.4 w F51 – Pan-STARRS 1, Haleakala MPS 723684
2013 01 18.51542 09 14 55.676 +02 51 34.40 21.4 w F51 – Pan-STARRS 1, Haleakala MPS 723684
2013 01 18.52987 09 14 55.092 +02 51 37.23 21.5 w F51 – Pan-STARRS 1, Haleakala MPS 723684
2014 04 04.24277 13 02 19.53 -01 43 50.2 20.8 V G96 – Mt. Lemmon Survey MPS 616118
2014 04 04.24781 13 02 19.30 -01 43 48.0 20.5 V G96 – Mt. Lemmon Survey MPS 616118
2014 04 04.25285 13 02 19.14 -01 43 45.3 20.5 V G96 – Mt. Lemmon Survey MPS 616118
2014 04 04.25790 13 02 18.91 -01 43 43.7 20.6 V G96 – Mt. Lemmon Survey MPS 616118
2014 04 23.35255 12 50 02.609 +00 23 27.01 21.3 w F51 – Pan-STARRS 1, Haleakala MPS 512816
2014 04 23.36504 12 50 02.160 +00 23 31.40 21.0 w F51 – Pan-STARRS 1, Haleakala MPS 512816
2014 04 23.37752 12 50 01.705 +00 23 35.84 21.0 w F51 – Pan-STARRS 1, Haleakala MPS 512816
2014 04 23.39000 12 50 01.251 +00 23 40.04 21.2 w F51 – Pan-STARRS 1, Haleakala MPS 512816
2014 04 29.25956 12 46 47.790 +00 56 10.80 21.4 w F51 – Pan-STARRS 1, Haleakala MPS 512816
2014 04 29.27145 12 46 47.399 +00 56 14.53 21.2 w F51 – Pan-STARRS 1, Haleakala MPS 512816
2014 04 29.28334 12 46 47.007 +00 56 17.99 21.4 w F51 – Pan-STARRS 1, Haleakala MPS 512816
2015 06 22.34044 18 06 58.60 -04 13 53.7 20.0 V G96 – Mt. Lemmon Survey MPS 612893
2015 06 22.34504 18 06 58.30 -04 13 53.3 20.3 V G96 – Mt. Lemmon Survey MPS 612893
2015 06 22.34964 18 06 58.12 -04 13 53.2 20.6 V G96 – Mt. Lemmon Survey MPS 612893
2015 06 22.35425 18 06 57.81 -04 13 53.3 21.5 V G96 – Mt. Lemmon Survey MPS 612893
2015 06 23.45217 18 06 07.721 -04 13 45.82 21.0 g F51 – Pan-STARRS 1, Haleakala MPS 612893
2015 06 23.46686 18 06 07.029 -04 13 45.69 21.0 g F51 – Pan-STARRS 1, Haleakala MPS 612893
2015 06 23.49567 18 06 05.661 -04 13 45.88 20.9 g F51 – Pan-STARRS 1, Haleakala MPS 612893
2015 06 24.44662 18 05 22.184 -04 13 49.33 20.9 g F51 – Pan-STARRS 1, Haleakala MPS 612893
2015 06 24.46136 18 05 21.490 -04 13 49.21 21.0 g F51 – Pan-STARRS 1, Haleakala MPS 612893
2015 06 24.47558 18 05 20.839 -04 13 49.45 21.1 g F51 – Pan-STARRS 1, Haleakala MPS 612893
2015 06 24.49014 18 05 20.130 -04 13 49.40 20.9 g F51 – Pan-STARRS 1, Haleakala MPS 612893
2015 07 09.40323 17 54 25.220 -04 32 34.74 20.5 w F51 – Pan-STARRS 1, Haleakala MPS 614656
2015 07 09.42672 17 54 24.235 -04 32 38.01 20.4 w F51 – Pan-STARRS 1, Haleakala MPS 614656
2015 07 09.43848 17 54 23.738 -04 32 39.66 20.4 w F51 – Pan-STARRS 1, Haleakala MPS 614656
2015 07 12.40482 17 52 27.226 -04 40 11.67 20.6 w F51 – Pan-STARRS 1, Haleakala MPS 615251
2015 07 12.42804 17 52 26.306 -04 40 15.41 20.6 w F51 – Pan-STARRS 1, Haleakala MPS 615251
2015 07 12.43950 17 52 25.852 -04 40 17.38 20.6 w F51 – Pan-STARRS 1, Haleakala MPS 615251
2016 08 10.51136 01 02 37.373 +06 55 31.82 20.9 w F51 – Pan-STARRS 1, Haleakala MPS 723684
2016 08 10.52424 01 02 37.477 +06 55 29.66 21.0 w F51 – Pan-STARRS 1, Haleakala MPS 723684
2016 08 10.53716 01 02 37.589 +06 55 27.49 20.9 w F51 – Pan-STARRS 1, Haleakala MPS 723684
2016 08 27.49859 01 02 23.700 +05 43 58.27 20.9 w F51 – Pan-STARRS 1, Haleakala MPS 727675
2016 08 27.51066 01 02 23.531 +05 43 54.12 21.0 w F51 – Pan-STARRS 1, Haleakala MPS 727675
2016 08 27.52261 01 02 23.375 +05 43 50.14 20.8 w F51 – Pan-STARRS 1, Haleakala MPS 727675
2016 08 27.53460 01 02 23.213 +05 43 46.12 21.0 w F51 – Pan-STARRS 1, Haleakala MPS 727675
2016 09 26.66599 00 48 38.78 +01 57 57.2 19.9 R D29 – Purple Mountain Observatory, XuYi Station MPS 732294
2016 09 26.67230 00 48 38.49 +01 57 53.2 20.6 R D29 – Purple Mountain Observatory, XuYi Station MPS 732294
2016 09 26.67862 00 48 38.29 +01 57 50.2 19.8 R D29 – Purple Mountain Observatory, XuYi Station MPS 732294
2016 09 26.68493 00 48 38.00 +01 57 46.4 19.8 R D29 – Purple Mountain Observatory, XuYi Station MPS 732294
2016 09 26.69124 00 48 37.80 +01 57 44.4 19.1 R D29 – Purple Mountain Observatory, XuYi Station MPS 732294
2016 09 26.69756 00 48 37.57 +01 57 41.4 19.8 R D29 – Purple Mountain Observatory, XuYi Station MPS 732294
2016 09 30.42706 00 46 12.208 +01 25 29.05 19.9 w F51 – Pan-STARRS 1, Haleakala MPS 734270
2016 09 30.43845 00 46 11.740 +01 25 23.18 20.0 w F51 – Pan-STARRS 1, Haleakala MPS 734270
2016 09 30.44984 00 46 11.271 +01 25 17.27 20.0 w F51 – Pan-STARRS 1, Haleakala MPS 734270
2016 10 02.39496 00 44 54.34 +01 08 32.5 20.0 V 691 – Steward Observatory, Kitt Peak-Spacewatch MPS 734270
2016 10 02.41352 00 44 53.56 +01 08 23.0 20.2 V 691 – Steward Observatory, Kitt Peak-Spacewatch MPS 734270
2016 10 02.43208 00 44 52.82 +01 08 13.3 20.2 V 691 – Steward Observatory, Kitt Peak-Spacewatch MPS 734270
2016 10 11.21482 00 39 09.17 -00 05 09.8 19.8 V G96 – Mt. Lemmon Survey MPS 736190
2016 10 11.21864 00 39 09.05 -00 05 12.0 19.8 V G96 – Mt. Lemmon Survey MPS 736190
2016 10 11.22249 00 39 08.91 -00 05 14.3 20.1 V G96 – Mt. Lemmon Survey MPS 736190
2016 10 11.22628 00 39 08.72 -00 05 15.7 19.8 V G96 – Mt. Lemmon Survey MPS 736190
2016 10 21.32767 00 33 10.31 -01 20 49.5 20.2 V G96 – Mt. Lemmon Survey MPS 739746
